Flugplatz Mengen-Hohentengen

Für EDTM sind keine METAR/TAF Berichte vorhanden.
Es werden die Flugwettermeldungen vom Flugplatz Friedrichshafen in 43 km Entfernung angezeigt.

Bericht für EDNY

vom 20.10. um 04:20 UTC

kein Wind

Sichtweite 200 m

Temperatur 6.0°C

Taupunkt 6.0°C

Luftfeuchtigkeit 100%

Luftdruck 1019 hPa

EDNY 200420Z AUTO 00000KT 0200 R24/0375N // VV/// 06/06 Q1019

Prognose für EDNY

vom 19.10. um 23:00 UTC

Zwischen 00:00 UTC und 08:00 UTC

variable Windrichtung mit 2 kt

Sichtweite 2000 m

feuchter Dunst

gering bewölkt in 300 ft


Zwischen 00:00 UTC und 08:00 UTC zeitweise

Sichtweite 400 m

Nebel


Zwischen 08:00 und 10:00 UTC übergehend zu

variable Windrichtung mit 2 kt

Sichtweite 10 km oder mehr

keine signifikanten Wettererscheinungen

keine Wolken


Zwischen 10:00 und 12:00 UTC übergehend zu

Wind 5 kt aus 230°

Sichtweite 10 km oder mehr

keine signifikanten Wettererscheinungen

keine Wolken

TAF EDNY 192300Z 2000/2024 VRB02KT 2000 BR FEW003 TEMPO 2000/2008 0400 FG VV001 BECMG 2008/2010 CAVOK BECMG 2010/2012 23005KT
Impressum